Location: Podia
(1.5569°N, 32.3469°E)
Time: 13:17:49
(UTC+00:00)

Tiros 1 - All Passes

Search period start: 26 September 2020 00:00
Search period end: 06 October 2020 00:00
Orbit: 630 x 664 km, 48.4° (Epoch: 26 September)

Date Brightness Start Highest point End Pass type
(mag) Time Alt. Az. Time Alt. Az. Time Alt. Az.
26 Sep - 08:58:54 10° SSE 09:00:37 12° SE 09:02:19 10° ESE daylight
26 Sep - 10:38:08 10° SW 10:42:38 52° NW 10:47:11 10° NNE daylight
26 Sep - 21:08:53 10° N 21:12:59 28° NE 21:17:04 10° ESE night (unlit)
26 Sep - 22:51:16 10° WNW 22:55:01 23° SW 22:58:44 10° S night (unlit)
27 Sep - 09:22:17 10° SSW 09:26:36 38° SE 09:30:55 10° ENE daylight
27 Sep - 11:05:47 10° W 11:08:39 16° NW 11:11:32 10° N daylight
27 Sep - 21:34:09 10° NW 21:38:57 86° SW 21:43:43 10° SE night (unlit)
28 Sep - 08:09:53 10° SE 08:10:29 10° SE 08:11:05 10° ESE daylight
28 Sep - 09:47:58 10° SW 09:52:32 60° NW 09:57:07 10° NNE daylight
28 Sep - 20:18:55 10° N 20:22:51 25° NE 20:26:46 10° ESE night (unlit)
28 Sep - 22:00:56 10° WNW 22:04:54 26° SW 22:08:50 10° S night (unlit)
29 Sep - 08:32:19 10° SSW 08:36:30 34° SE 08:40:41 10° ENE daylight
29 Sep - 10:15:21 10° W 10:18:31 18° NW 10:21:43 10° N daylight
29 Sep - 20:44:02 10° NW 20:48:50 83° NE 20:53:36 10° SE night (unlit)
30 Sep - 08:57:50 10° SW 09:02:25 68° NW 09:07:02 10° NNE daylight
30 Sep - 19:28:59 10° N 19:32:43 22° NE 19:36:27 10° ESE night (unlit)
30 Sep - 21:10:37 10° WNW 21:14:46 29° SW 21:18:54 10° S night (unlit)
01 Oct - 07:42:21 10° S 07:46:23 30° SE 07:50:25 10° ENE daylight
01 Oct - 09:24:58 10° W 09:28:24 20° NW 09:31:51 10° N daylight
01 Oct - 19:53:55 10° NNW 19:58:42 73° NE 20:03:28 10° SE night (unlit)
02 Oct - 08:07:42 10° SW 08:12:19 79° NW 08:16:57 10° NE daylight
02 Oct - 18:39:05 10° N 18:42:35 20° NE 18:46:04 10° E night (unlit)
02 Oct - 20:20:20 10° WNW 20:24:38 33° SW 20:28:56 10° SSE night (unlit)
03 Oct - 06:52:25 10° S 06:56:17 26° SE 07:00:08 10° ENE daylight
03 Oct - 08:34:38 10° WSW 08:38:17 23° NW 08:41:57 10° N daylight
03 Oct - 19:03:49 10° NNW 19:08:34 64° NE 19:13:19 10° SE night (unlit)
03 Oct - 20:49:57 10° WSW 20:50:39 10° SW 20:51:21 10° SW night (unlit)
04 Oct - 07:17:36 10° SW 07:22:13 89° NNW 07:26:50 10° NE daylight
04 Oct - 17:49:14 10° N 17:52:27 18° NE 17:55:39 10° E night (unlit)
04 Oct - 19:30:04 10° WNW 19:34:30 37° SW 19:38:57 10° SSE night (unlit)
05 Oct - 06:02:31 10° S 06:06:10 23° SE 06:09:49 10° ENE daylight
05 Oct - 07:44:20 10° WSW 07:48:10 26° NW 07:52:00 10° N daylight
05 Oct - 18:13:44 10° NNW 18:18:26 56° NE 18:23:09 10° SE visible
05 Oct - 19:58:44 10° WSW 20:00:30 12° SW 20:02:17 10° SSW night (unlit)
